KD4YQH Weather Reports


time (UTC)temp
C
wind
direction
speed
KPH
gust
KPH
rain 1hr
cm
rain 24hr
cm
rain mn
cm
humidity
%
barometer
mb
20260503174245 15 210 3.2 14.5 0.00 0.00 0.00 37 1009.9
20260503173244 15 236 0.0 11.3 0.00 0.00 0.00 39 1009.9
20260503172243 15 180 4.8 9.7 0.00 0.00 0.00 38 1009.9
20260503171244 15 215 4.8 12.9 0.00 0.00 0.00 40 1009.9
20260503131048 2 68 0.0 0.0 0.00 0.00 0.00 99 1009.9
20260503080715 1 68 0.0 0.0 0.00 0.00 0.00 97 1009.9
20260503071645 1 68 0.0 0.0 0.00 0.00 0.00 96 1009.9
20260503070639 1 68 0.0 0.0 0.00 0.00 0.00 96 1009.9
20260503053523 2 68 0.0 0.0 0.00 0.00 0.00 95 1009.9
20260503051506 3 68 0.0 0.0 0.00 0.00 0.00 95 1009.9
20260503050505 3 68 0.0 0.0 0.00 0.00 0.00 95 1009.9
20260503045502 3 68 0.0 0.0 0.00 0.00 0.00 95 1009.9
20260503044454 3 68 0.0 0.0 0.00 0.00 0.00 95 1009.9
20260503043446 3 68 0.0 0.0 0.00 0.00 0.00 95 1009.9
20260503042439 3 68 0.0 0.0 0.00 0.00 0.00 94 1009.9
20260503041431 4 68 0.0 0.0 0.00 0.00 0.00 94 1009.9
20260503035356 5 68 0.0 0.0 0.00 0.00 0.00 93 1009.9
20260503033341 5 68 0.0 0.0 0.00 0.00 0.00 92 1009.9
20260503032334 5 68 0.0 0.0 0.00 0.00 0.00 92 1009.9
20260503031330 5 68 0.0 0.0 0.00 0.00 0.00 90 1009.9
20260503030324 5 68 0.0 0.0 0.00 0.00 0.00 90 1009.9
20260503025316 6 68 0.0 0.0 0.00 0.00 0.00 90 1009.9
20260503024311 6 68 0.0 0.0 0.00 0.00 0.00 89 1009.9
20260503023310 6 68 0.0 0.0 0.00 0.00 0.00 89 1009.9
20260503022256 6 68 0.0 0.0 0.00 0.00 0.00 89 1009.9
20260503021249 6 68 0.0 0.0 0.00 0.00 0.00 88 1009.9
20260503020249 6 68 0.0 0.0 0.00 0.00 0.00 87 1009.9
20260503015242 6 68 0.0 0.0 0.00 0.00 0.00 86 1009.9
20260503014240 6 68 0.0 0.0 0.00 0.00 0.00 83 1009.9
20260503013231 7 68 0.0 0.0 0.00 0.00 0.00 81 1009.9
20260503012219 7 68 0.0 0.0 0.00 0.00 0.00 79 1009.9
20260503011218 8 68 0.0 0.0 0.00 0.00 0.00 77 1009.9
20260503010204 8 68 0.0 0.0 0.00 0.00 0.00 75 1009.9
20260503005202 9 68 0.0 0.0 0.00 0.00 0.00 72 1009.9
20260503004154 10 68 0.0 0.0 0.00 0.00 0.00 69 1009.9
20260503002149 11 68 0.0 0.0 0.00 0.00 0.00 69 1009.9
20260503001142 11 68 0.0 0.0 0.00 0.00 0.00 65 1009.9
20260503000137 11 68 0.0 0.0 0.00 0.00 0.00 62 1009.9
20260502235137 12 68 0.0 3.2 0.00 0.00 0.00 60 1009.9
20260502234130 12 40 0.0 8.0 0.00 0.00 0.00 55 1009.9
20260502233121 13 282 0.0 6.4 0.00 0.00 0.00 52 1009.9
20260502232122 13 167 1.6 6.4 0.00 0.00 0.00 51 1009.9
20260502230120 13 227 4.8 8.0 0.00 0.00 0.00 52 1009.9
20260502225119 13 112 3.2 6.4 0.00 0.00 0.00 55 1009.9
20260502223056 13 307 3.2 11.3 0.00 0.00 0.00 51 1009.9
20260502222055 13 120 1.6 11.3 0.00 0.00 0.00 52 1009.9
20260502221053 13 225 0.0 11.3 0.00 0.00 0.00 52 1009.9
20260502220053 13 254 3.2 9.7 0.00 0.00 0.00 50 1009.9
20260502215051 13 43 1.6 9.7 0.00 0.00 0.00 51 1009.9
20260502213047 13 77 3.2 8.0 0.00 0.00 0.00 51 1009.9
20260502212049 14 191 1.6 6.4 0.00 0.00 0.00 49 1009.9
20260502210030 15 275 3.2 11.3 0.00 0.00 0.00 47 1009.9
20260502205031 15 241 0.0 8.0 0.00 0.00 0.00 46 1009.9
20260502204028 15 288 3.2 12.9 0.00 0.00 0.00 49 1009.9
20260502203026 14 201 3.2 8.0 0.00 0.00 0.00 48 1009.9
20260502202024 13 181 1.6 8.0 0.00 0.00 0.00 50 1009.9
20260502201016 13 303 1.6 6.4 0.00 0.00 0.00 53 1009.9
20260502200016 13 279 0.0 8.0 0.00 0.00 0.00 53 1009.9
20260502194011 14 177 0.0 6.4 0.00 0.00 0.00 51 1009.9
20260502193014 14 195 0.0 9.7 0.00 0.00 0.00 50 1009.9
20260502191956 14 201 1.6 11.3 0.00 0.00 0.00 49 1009.9
20260502190957 15 312 3.2 14.5 0.00 0.00 0.00 46 1009.9
20260502185954 15 210 3.2 14.5 0.00 0.00 0.00 46 1009.9
20260502184953 15 172 3.2 11.3 0.00 0.00 0.00 46 1009.9
20260502183951 13 199 4.8 12.9 0.00 0.00 0.00 50 1009.9
20260502180944 13 313 3.2 8.0 0.00 0.00 0.00 49 1009.9